Content
SEND FEEDBACK

Daily
Averages
Monthly
Summary
United States of America

ST. LOUIS, MISSOURI


Home > North America > United States > Missouri
Elevation: 163 meters     Latitude: 38 45N     Longitude: 090 22W

WEATHER
 
SELECT A DAY
Number of Records: 196,588;   Date Range: 1/1/95 - 9/3/14
 
SHARE

PRINT THIS DATA

[ ← Previous Day ]
WEATHER ALMANAC - 1 MAY, 2013
[ Next Day → ]
[ °F ]   °C
Weather ElementAverageHighLow
Temperature21.3 °C27.8 °C (12:54 pm)11.1 °C (5:54 am)
Dewpoint12.3 °C14.4 °C (8:54 am)10 °C (3:54 am)
Humidity60.5 %93 % (5:54 am)35 % (11:54 am)
Barometer1016.3 hPa1017.9 hPa (9:54 pm)1013.9 hPa (1:54 am)
Wind Speed7.7 km/h20.4 km/h (2:54 pm)
Wind Gust29.6 km/h (2:54 pm)
Weather ElementAverage
Visibility16.1 km
Wind DirectionENE (77 °)

Weather ElementTotal
Precipitation---
Cooling Degree Days1.1 (Base 18.3)
Growing Degree Days9.4 (Base 10)
Averaged from 23 records on 1 May, 2013
WEATHER CONDITIONS BREAKOUT
WIND DIRECTION BREAKOUT
WEATHER BY HOUR - 1 MAY, 2013
[ °F ]   °C
Local TimeTemperatureDewpointHumidityBarometerVisibilityWind DirectionWind SpeedGust SpeedPrecipitationEventsConditions
1:54 AM15.6 °C11.7 °C78 %1013.9 hPa16.1 kmSE (140°)5.6 km/hClear
2:54 AM14.4 °C11.7 °C84 %1013.9 hPa16.1 kmSouth (170°)5.6 km/hClear
3:54 AM12.2 °C10 °C86 %1014.6 hPa16.1 kmCalmClear
4:54 AM12.2 °C10.6 °C90 %1015.2 hPa16.1 kmCalmClear
5:54 AM11.1 °C10 °C93 %1015.9 hPa16.1 kmCalmClear
6:54 AM12.2 °C11.1 °C93 %1016.6 hPa16.1 kmCalmClear
7:54 AM16.1 °C13.3 °C83 %1016.9 hPa16.1 kmCalmClear
8:54 AM21.1 °C14.4 °C65 %1016.9 hPa16.1 kmCalmPartly Cloudy
9:54 AM25 °C11.1 °C42 %1016.9 hPa16.1 kmVariable9.3 km/hPartly Cloudy
10:54 AM25.6 °C11.1 °C40 %1016.9 hPa16.1 kmSE (130°)13 km/hScattered Clouds
11:54 AM27.2 °C10.6 °C35 %1016.9 hPa16.1 kmSouth (190°)13 km/hPartly Cloudy
12:54 PM27.8 °C11.1 °C35 %1016.6 hPa16.1 kmSSE (150°)18.5 km/h27.8 km/hScattered Clouds
1:54 PM27.2 °C12.2 °C39 %1016.9 hPa16.1 kmEast (90°)18.5 km/hMostly Cloudy
2:54 PM27.8 °C12.8 °C39 %1016.6 hPa16.1 kmESE (110°)20.4 km/h29.6 km/hMostly Cloudy
3:54 PM27.8 °C12.8 °C39 %1016.6 hPa16.1 kmSouth (170°)13 km/hMostly Cloudy
4:54 PM27.8 °C12.8 °C39 %1016.3 hPa16.1 kmVariable11.1 km/hMostly Cloudy
5:54 PM27.2 °C13.3 °C42 %1016.3 hPa16.1 kmESE (120°)13 km/hMostly Cloudy
6:54 PM26.7 °C13.9 °C45 %1016.3 hPa16.1 kmSE (140°)13 km/hScattered Clouds
7:54 PM25.6 °C12.8 °C45 %1016.6 hPa16.1 kmESE (120°)11.1 km/hMostly Cloudy
8:54 PM23.9 °C12.8 °C50 %1017.3 hPa16.1 kmSE (140°)7.4 km/hClear
9:54 PM21.1 °C13.9 °C63 %1017.9 hPa16.1 kmCalmClear
10:54 PM17.8 °C14.4 °C80 %1017.6 hPa16.1 kmEast (100°)5.6 km/hClear
11:54 PM16.7 °C14.4 °C86 %1017.9 hPa16.1 kmCalmClear
Hourly data recorded from KSUS, located 0 kilometers away from St. Louis, Missouri







STORIES FROM OUR PARTNERS